sat.trackr.live / text

‹ back to catalog

STARLINK-33676

NORAD 63403 · 2025-065E

PAYLOAD ACTIVE UNKNOWN

§ Identity

Operator
Country
US
Launch date
2025-03-31
Launch site
AFETR
Launch vehicle
Mass (kg)
RCS (m²)

Purposes: comms

External: N2YO · Heavens-Above · Gunter

§ Orbital elements

Epoch: 2026-05-25T01:46:33.039264Z

Period
94.27 min
Inclination
43.0028°
Eccentricity
0.0001380
Mean motion
15.27592530 rev/d
Perigee alt
482.1 km
Apogee alt
484.0 km
Semi-major
6,861.1 km
B*
9.3821e-4
RAAN
35.5540°
Arg perigee
263.8286°
Mean anomaly
96.2408°
Rev number
6,452

§ Raw data

STARLINK-336761 63403U 25065E   26145.07399351  .00025655  00000+0  93821-3 0  99972 63403  43.0028  35.5540 0001380 263.8286  96.2408 15.27592530 64529

JSON: /api/v1/satellites/63403 · /tle

For live sub-satellite position, see the globe view (requires WebGL).

§ Visibility from observer

Set your observer location to see the next 7 days of passes ≥ 10°. The values pass through the URL so the page stays shareable.

No JS? Fill the form by hand. The geolocation button needs JavaScript.